Location: *
(45.5667°S, 177.5167°W)
Time: 17:00:24
(UTC+00:00)

CZ-2C R/B - Pass Details

Date: 29 May 2022
Orbit: 704 x 907 km, 98.1° (Epoch: 28 June)

Event Time Altitude Azimuth Distance (km) Brightness Sun altitude
Rises 05:30:14 0° 172° (S) 3,141 5.9 -12.4°
Reaches altitude 10° 05:32:32 10° 176° (S) 2,221 5.2 -12.8°
Maximum altitude 05:37:14 51° 251° (WSW) 915 3.7 -13.5°
Drops below altitude 10° 05:42:01 10° 326° (NW) 2,264 6.2 -14.3°
Sets 05:44:23 0° 331° (NNW) 3,206 6.9 -14.7°
